RH
58 57 56 53 54 52 50 48 44 43 41 42 42 41 42 43 46 47 49 50 50 48 47 45 43 39 37 35 33 31 31 31 30 30 28 26 24 24 23 23 23 24 27 29 31 33 32 29 26 24 23 26 29 34 39 37 35 34 34 36 37 38 40 40 38 37 36 34 33 33 32 32 31 31 32 31 35 37 40 43 41 44 45 42 41
60 55 53 52 54 52 50 46 43 42 41 43 44 44 43 45 47 47 48 49 49 48 48 48 46 44 41 37 34 32 31 31 30 29 27 24 24 25 24 24 25 26 29 31 33 32 28 25 23 24 26 31 34 35 34 32 32 34 36 38 40 41 41 41 39 38 37 36 34 33 32 32 31 31 29 26 26 25 28 31 36 46 41 34 36
57 52 52 54 55 53 49 46 44 43 42 44 46 46 45 47 48 47 47 47 46 47 48 48 48 47 44 41 37 34 31 30 30 28 25 23 24 25 25 24 25 28 31 33 31 26 24 23 24 28 33 36 35 32 30 30 31 35 38 39 41 41 41 41 40 38 37 36 34 34 34 33 32 31 29 26 25 21 19 20 27 37 31 23 26
56 54 55 55 54 52 50 48 45 43 43 45 47 48 48 49 48 48 47 46 46 46 47 47 47 47 47 45 42 39 34 30 29 27 24 23 23 23 24 23 24 29 32 30 26 23 23 24 29 35 38 37 33 30 29 30 31 35 38 40 41 42 42 41 39 36 35 37 40 43 43 38 33 30 28 27 25 23 19 18 18 21 19 17 19
61 60 56 54 52 50 50 49 46 45 45 45 47 49 51 51 50 48 47 48 48 48 48 47 47 46 47 47 45 43 39 33 27 24 23 22 22 21 22 22 24 28 28 26 24 24 25 29 37 42 40 35 32 31 31 31 32 34 36 39 40 40 40 38 36 34 36 42 48 51 50 43 35 30 29 28 26 25 23 22 20 18 16 15 17
64 61 55 53 52 50 49 48 47 48 49 48 48 50 52 53 52 50 49 49 50 50 50 48 47 46 45 45 45 45 43 36 26 22 22 22 21 21 21 21 24 26 25 24 24 25 29 37 44 45 41 36 34 33 33 33 34 34 35 37 38 39 38 36 35 34 39 47 52 54 52 45 39 33 30 29 27 27 27 25 24 21 19 18 17
62 59 55 54 55 51 48 49 49 50 52 52 51 51 54 54 54 52 51 50 49 49 48 46 44 44 43 42 44 44 43 34 24 22 23 22 21 20 21 22 24 25 25 24 24 28 36 44 48 47 43 40 37 36 36 34 35 36 36 39 39 38 37 36 36 38 45 52 54 54 52 49 45 37 30 29 29 29 29 27 26 25 24 23 21
58 57 58 60 61 54 51 52 53 54 55 57 57 58 59 59 57 54 53 50 48 46 43 42 40 38 37 37 40 41 39 32 25 23 23 22 22 22 22 22 25 25 25 25 27 34 41 47 49 47 46 45 42 40 37 36 38 39 40 42 42 39 37 36 36 41 50 55 55 53 50 49 48 39 30 31 32 31 30 29 28 28 30 29 27
57 60 66 69 69 62 59 59 59 60 60 62 64 65 66 65 61 58 55 52 48 44 41 40 36 32 29 29 33 37 37 33 28 24 23 24 23 23 23 23 26 26 26 29 34 40 45 49 49 47 46 45 46 43 38 37 39 42 45 46 43 39 36 36 37 44 52 56 55 52 50 50 48 37 29 34 36 36 37 37 34 32 37 37 33
61 68 71 74 75 69 66 67 67 68 68 68 69 71 71 68 64 61 58 55 50 44 41 38 33 28 24 24 28 33 35 35 33 30 26 26 25 23 23 24 26 29 31 35 40 43 46 49 48 47 46 46 48 44 41 42 43 45 48 47 43 38 36 37 42 49 54 55 51 46 44 48 49 36 28 34 38 41 45 45 39 35 37 38 33
66 71 70 73 75 71 69 69 70 71 71 71 73 76 76 73 68 64 60 57 54 47 40 36 30 26 23 23 26 28 31 39 42 41 36 30 28 25 24 26 29 33 36 40 44 45 48 50 50 48 48 50 50 45 44 45 46 48 50 47 42 39 38 42 51 56 58 55 48 41 40 44 42 30 25 32 40 45 47 46 40 34 32 32 29
69 70 68 68 69 71 73 72 73 71 67 66 70 75 78 79 75 71 66 59 56 49 39 33 30 27 26 25 26 28 35 45 52 55 50 39 32 28 26 30 34 35 38 43 45 47 50 51 52 51 53 53 50 47 47 47 49 51 51 48 42 40 40 47 55 57 58 56 49 45 46 46 34 22 22 29 40 45 47 46 42 37 32 30 28
63 62 60 60 61 65 68 68 71 70 64 61 62 67 73 77 79 79 73 63 58 51 39 33 30 28 27 27 31 37 44 51 58 62 57 46 37 31 30 34 35 34 39 44 46 49 52 54 55 55 56 54 50 48 48 48 50 51 51 49 43 41 41 48 55 55 55 54 50 48 50 45 31 21 21 27 38 46 48 47 45 41 33 29 26
56 52 53 55 58 60 61 62 64 64 61 60 57 57 61 66 71 75 71 62 57 53 41 33 30 27 27 30 39 45 48 53 58 63 59 49 38 31 34 36 33 35 40 46 49 51 53 56 59 58 57 54 51 49 48 48 51 53 52 49 46 44 44 49 53 55 55 52 49 48 49 41 29 22 21 25 35 45 49 48 46 40 33 28 25
57 52 52 55 57 58 60 61 61 61 59 58 58 56 56 59 61 62 62 57 54 52 41 32 31 28 28 34 44 47 49 53 55 58 58 51 41 34 37 36 33 37 41 48 52 53 55 57 60 60 57 56 53 50 48 50 53 55 54 51 49 49 51 55 56 55 53 50 47 46 43 34 27 24 21 23 31 39 45 45 41 36 31 26 24
61 56 53 53 55 55 57 60 60 58 55 52 55 59 59 59 60 60 59 55 49 49 40 30 31 31 34 37 40 44 47 50 50 52 54 53 45 36 37 38 36 39 44 50 52 54 57 59 61 61 58 57 54 51 51 52 53 55 55 52 51 51 53 57 58 55 51 48 46 44 39 29 26 25 20 22 28 33 37 37 34 31 27 24 23
57 56 55 54 54 54 56 57 56 53 52 49 50 59 63 61 60 62 64 60 51 50 45 33 33 37 39 37 34 39 43 42 43 45 51 55 46 37 38 38 39 42 45 50 52 55 61 62 62 61 59 57 54 54 55 53 53 54 54 51 49 49 49 53 57 55 49 47 46 44 40 31 27 26 22 23 28 30 31 31 29 28 26 25 25
52 52 51 52 53 55 54 53 52 51 51 50 47 52 60 64 61 61 63 65 58 53 52 41 39 42 40 37 34 37 40 40 41 40 47 52 43 38 39 38 41 44 46 51 53 56 62 63 63 62 59 55 54 56 56 53 53 53 52 48 44 43 44 50 57 55 50 48 46 42 36 29 28 30 25 25 28 29 29 29 28 28 27 27 26
51 50 48 49 51 54 55 53 53 51 52 51 47 46 51 60 64 63 63 66 64 57 57 52 45 45 43 39 36 36 39 40 40 41 46 48 44 40 40 40 43 45 49 53 54 56 61 63 62 61 57 53 54 58 56 53 51 50 48 44 41 41 44 49 55 55 52 49 45 37 29 27 32 32 25 26 28 28 28 28 28 27 27 27 26
49 47 46 48 49 51 53 53 51 48 49 48 46 42 39 48 58 63 65 68 70 63 60 58 49 47 44 42 40 38 42 44 42 44 47 50 51 46 41 42 43 47 52 55 55 56 60 63 62 59 54 51 55 59 57 52 51 48 46 44 44 47 47 48 53 54 51 47 42 34 28 29 35 31 25 26 27 28 29 29 29 28 28 26 26
44 44 42 42 43 44 45 45 46 45 46 45 43 40 34 38 47 55 61 64 71 68 61 61 55 48 44 43 43 41 42 45 45 47 47 51 56 51 44 44 45 49 53 54 55 55 59 64 62 56 51 51 56 60 57 54 53 51 50 50 50 49 47 48 53 53 49 47 40 31 29 31 34 31 26 27 27 28 30 30 29 29 28 26 26
38 42 41 38 38 38 38 38 40 41 43 42 42 41 35 34 41 48 52 56 68 71 61 62 61 50 44 44 44 42 39 42 45 46 48 51 55 55 51 50 48 50 53 53 55 56 59 63 60 53 50 50 57 61 58 55 55 54 54 55 54 49 47 50 54 52 47 46 39 29 28 30 32 32 28 27 29 30 31 31 30 29 28 26 26
32 37 37 34 33 33 33 34 35 37 39 40 40 42 38 34 36 41 47 51 64 72 62 59 64 56 49 47 43 42 40 41 45 46 48 50 52 56 58 57 52 50 52 53 55 57 59 61 57 52 49 53 62 64 61 58 56 55 57 58 55 48 47 52 54 51 45 43 40 33 29 29 33 33 29 29 31 32 31 30 30 29 28 27 27
32 33 34 32 31 29 29 29 31 32 35 37 37 40 39 37 37 38 45 50 59 68 63 58 61 61 59 54 44 43 43 41 45 47 47 50 53 57 62 61 52 49 52 53 54 55 58 59 56 51 52 59 65 65 64 62 59 60 60 59 56 50 49 54 55 51 45 40 37 36 32 31 35 34 30 32 33 32 31 31 31 31 30 29 28
32 32 33 35 32 29 28 27 28 29 31 32 34 37 38 39 39 39 43 49 55 59 62 61 61 66 69 64 50 43 45 42 43 47 48 54 57 59 66 61 49 48 51 52 53 54 58 59 56 54 56 62 65 62 64 64 64 64 62 60 59 53 52 56 54 49 44 37 32 33 33 31 35 36 33 34 34 33 33 32 32 33 32 31 30
33 30 30 36 36 31 28 26 26 28 29 30 32 35 37 37 38 43 47 48 51 53 58 62 66 73 73 71 63 48 44 43 41 44 49 54 57 61 66 56 45 48 50 53 57 56 62 63 59 58 57 60 62 60 61 65 66 66 62 61 61 56 52 55 54 48 44 38 32 30 30 30 35 39 38 36 35 35 35 34 33 33 33 33 31
33 29 27 34 38 36 31 27 27 29 30 30 31 34 36 37 37 41 44 45 49 50 53 58 65 72 73 76 74 58 46 45 42 43 50 53 57 64 62 50 46 51 50 54 59 58 62 65 64 60 57 60 61 58 59 65 67 65 63 63 63 59 52 54 54 48 42 38 34 29 25 27 33 40 40 38 37 36 35 34 33 32 32 32 31
33 33 31 34 38 39 36 32 31 34 33 33 32 33 34 35 37 38 39 41 46 48 48 55 61 65 71 75 76 67 52 47 45 43 47 53 60 64 56 49 49 51 49 53 58 59 60 62 65 62 60 63 62 59 61 65 68 65 64 62 63 60 52 52 55 49 42 38 34 30 28 27 31 36 39 39 37 35 34 33 32 32 31 31 31
36 37 36 37 40 42 41 36 34 36 36 35 34 34 33 33 36 37 39 39 41 44 43 49 60 64 69 72 74 72 61 52 46 43 46 54 64 61 55 53 51 50 49 51 56 58 61 64 65 63 61 65 64 62 63 66 68 66 64 61 62 61 54 51 53 52 46 40 34 31 32 32 34 37 40 41 38 34 33 33 33 32 31 31 31
37 37 36 38 41 42 42 38 34 34 34 35 35 36 36 34 35 36 39 39 37 39 38 42 56 65 67 70 73 71 67 60 49 43 45 54 63 58 55 56 52 52 51 53 57 57 62 65 64 62 61 66 68 65 64 66 67 67 64 62 61 61 57 52 52 54 51 45 38 34 35 36 38 41 43 42 39 36 33 34 34 33 32 31 31
39 38 38 38 40 40 40 36 34 34 35 35 36 37 38 38 37 37 37 37 38 39 40 43 50 60 61 63 69 69 70 67 52 44 43 48 57 56 55 56 53 54 54 56 60 60 62 64 63 61 61 67 70 66 65 66 66 67 65 62 60 60 59 54 51 53 55 53 46 40 39 40 42 44 45 44 43 40 34 33 34 33 32 32 32
44 43 40 36 35 37 37 33 32 34 34 34 36 35 36 38 37 38 38 37 43 48 49 49 51 56 56 56 66 73 72 69 56 47 47 46 52 60 59 56 55 54 55 59 63 62 61 62 62 60 62 68 70 68 67 68 68 67 65 61 60 60 59 57 52 51 55 56 53 48 46 46 46 47 47 48 47 44 36 32 34 33 32 32 32
46 42 38 34 31 32 32 28 29 33 32 31 33 34 34 36 37 38 38 37 43 51 53 55 57 59 60 61 68 73 70 66 59 49 52 49 50 65 64 57 59 56 56 61 62 62 60 60 63 61 61 66 69 70 70 70 71 69 66 62 60 60 59 59 56 52 52 55 53 52 52 51 50 49 49 49 50 49 41 32 30 29 30 32 31
42 37 33 32 30 28 26 24 24 29 31 29 29 34 35 35 37 37 37 38 41 46 48 53 60 63 67 70 69 72 70 67 63 53 53 51 51 66 66 58 60 58 59 61 59 59 59 62 65 63 62 66 69 70 71 73 73 71 68 63 61 61 59 60 58 54 52 52 52 52 53 52 51 51 51 50 50 52 48 37 31 28 26 28 30
35 32 30 30 30 28 25 23 21 22 27 30 29 31 35 35 36 38 37 38 41 44 45 49 58 62 67 72 71 75 71 68 69 59 52 51 53 61 64 63 61 60 63 63 59 58 58 62 67 65 63 67 70 71 72 74 75 72 68 63 61 61 58 56 57 57 54 52 51 50 51 54 53 52 53 54 52 52 49 42 36 32 27 26 27
33 31 29 29 29 29 27 24 22 20 21 27 30 29 32 35 38 40 40 41 43 46 48 52 61 62 62 69 77 80 72 68 71 64 53 51 57 57 58 66 64 63 68 63 59 58 57 61 67 66 64 65 69 72 73 74 76 71 66 62 58 60 58 53 55 57 56 56 53 50 50 53 53 51 52 54 54 53 50 44 39 36 32 27 24
33 31 30 29 29 29 28 25 24 23 20 22 29 30 29 33 39 42 42 43 45 48 49 52 59 63 63 67 77 82 75 70 70 65 55 52 56 54 56 68 66 64 70 64 60 59 57 60 64 65 65 64 67 73 75 74 75 69 64 61 56 59 58 52 53 55 56 58 56 53 51 50 49 51 53 54 55 52 49 48 44 39 34 30 25
34 32 31 30 30 29 28 27 25 26 23 21 25 31 31 32 36 42 44 45 46 47 49 50 56 64 68 71 78 84 79 73 71 64 57 53 49 49 58 69 65 65 70 65 60 60 58 60 61 60 62 65 67 72 75 74 74 69 65 60 55 57 56 50 51 52 54 57 58 55 54 52 50 50 52 53 53 51 50 49 47 44 38 32 26
35 33 32 31 32 33 31 30 29 28 28 26 27 30 32 32 34 39 44 46 47 48 50 53 60 67 75 80 83 87 84 76 71 63 57 55 48 51 65 69 63 65 68 65 60 59 59 59 59 57 58 63 66 67 71 74 74 69 64 59 55 55 53 51 51 51 52 54 58 56 53 53 53 50 46 46 45 43 48 51 50 47 43 37 29
36 34 34 33 33 36 35 34 35 34 33 33 34 33 34 34 32 33 40 46 49 52 55 59 63 67 76 85 87 88 86 78 72 62 56 56 52 59 67 62 60 64 65 63 59 59 57 57 59 55 54 59 63 65 67 70 71 68 64 58 54 53 52 53 52 52 50 50 55 56 54 53 54 52 46 43 39 35 39 46 51 49 43 40 35
38 36 35 36 37 37 38 39 39 40 38 36 38 38 37 37 34 32 38 46 50 54 58 61 65 68 72 81 84 86 86 79 73 64 57 56 56 60 60 56 60 63 62 59 59 61 58 58 61 56 54 58 61 64 64 66 68 67 64 58 53 52 53 55 54 50 49 50 52 56 57 54 53 52 49 45 41 35 32 37 46 51 46 41 38
40 38 36 36 38 38 37 38 39 40 41 38 39 40 38 38 38 35 35 41 47 52 56 59 67 73 76 80 82 85 88 82 74 67 61 59 61 62 59 58 60 59 59 57 57 59 57 59 62 58 58 60 60 62 62 66 67 64 64 62 57 54 54 56 55 50 48 49 52 54 56 56 53 51 48 46 44 38 32 31 37 46 48 45 42
42 40 38 37 38 38 35 35 35 36 38 39 39 40 38 38 39 38 35 38 45 52 57 60 65 74 79 81 82 83 84 79 72 68 66 64 65 66 64 63 60 58 62 58 54 56 55 56 60 61 62 60 59 59 61 66 69 68 66 62 57 54 56 57 54 50 46 46 49 52 53 55 54 51 46 45 46 42 36 33 31 36 44 47 46
43 41 40 39 38 36 34 32 33 32 33 37 38 39 40 39 39 40 37 38 44 49 56 62 66 74 82 81 81 84 82 76 71 68 67 67 69 69 69 70 65 63 67 61 53 55 55 53 58 63 63 62 61 59 60 63 66 68 65 60 55 51 55 60 56 49 44 44 46 47 50 52 53 52 48 45 44 43 40 37 31 30 35 42 46
44 43 41 40 38 35 33 32 32 31 30 33 35 38 41 41 40 41 41 41 45 48 53 58 62 72 86 89 85 86 85 81 76 69 68 69 72 71 70 71 68 65 68 63 54 56 57 53 57 64 61 61 63 60 60 61 63 65 63 63 59 53 57 61 57 50 44 43 44 44 47 48 49 51 50 47 45 43 41 39 35 31 29 34 42
44 43 42 41 38 34 32 33 32 30 29 31 33 35 38 41 42 43 43 44 49 52 52 59 66 73 85 90 86 85 86 87 82 73 70 71 75 76 74 73 70 66 66 65 61 60 60 56 58 64 61 59 62 61 60 61 65 64 62 64 59 54 60 59 55 54 48 44 45 45 46 45 46 47 48 48 46 46 43 39 37 33 29 29 33
44 43 43 43 38 33 32 33 31 29 29 30 32 33 34 39 43 43 44 47 52 55 54 60 69 73 80 86 88 88 89 90 84 73 70 72 76 80 79 78 77 72 65 65 67 64 62 58 58 63 62 58 60 63 61 61 67 67 63 62 56 54 61 57 54 57 55 52 48 47 46 43 42 42 45 46 44 46 45 41 38 35 31 30 28
44 42 44 42 37 33 31 29 28 28 29 30 31 32 33 36 41 43 44 49 54 57 57 59 61 67 79 86 88 89 88 90 84 73 70 71 74 79 81 82 82 77 67 64 67 64 61 58 57 62 62 58 60 62 62 61 66 69 63 59 55 53 55 54 55 58 60 59 55 51 48 42 40 38 40 43 42 41 43 43 41 37 33 31 29
44 43 42 38 32 29 27 25 25 25 27 29 29 31 32 34 38 42 44 50 55 56 58 61 61 66 77 85 87 86 87 90 86 79 76 74 75 79 81 83 82 79 74 72 70 65 62 59 57 60 61 61 60 61 63 61 62 67 65 60 58 54 49 48 53 56 57 61 63 63 55 45 41 38 36 37 39 40 39 40 42 40 36 31 29
43 41 37 32 28 26 24 23 23 23 25 27 28 29 30 32 36 40 43 48 55 56 57 61 64 66 72 82 89 87 85 88 84 80 80 79 81 82 82 84 81 79 81 79 73 66 61 58 55 56 58 59 62 63 66 64 62 68 70 65 61 56 50 47 48 50 51 55 62 64 59 51 47 43 38 35 36 38 38 37 39 40 40 34 31
40 38 33 30 28 26 24 23 22 24 26 26 26 26 27 30 33 37 42 45 51 57 57 58 63 67 71 79 87 87 85 85 82 82 84 83 84 82 81 83 80 78 80 78 72 67 62 57 54 55 55 56 59 61 63 65 66 69 69 67 63 57 52 50 49 49 48 50 54 56 55 52 50 47 43 39 35 36 37 37 37 37 40 39 36